Weather History for Chennai, India

Change the Weather History Date:

Sunday, November 4, 2012

  Actual Average Record
Temperature  
Mean Temperature 82 °F -  
Max Temperature 92 °F 82 °F 92 °F (2012)
Min Temperature 72 °F 72 °F 69 °F (1996)
Cooling Degree Days 17    
Growing Degree Days 32 (Base 50)    
Moisture  
Dew Point 75 °F    
Average Humidity 78    
Maximum Humidity 94    
Minimum Humidity 46    
Precipitation  
Precipitation 0.00 in 0.49 in - ()
Sea Level Pressure  
Sea Level Pressure 29.77 in    
Wind  
Wind Speed 4 mph ()    
Max Wind Speed 14 mph    
Max Gust Speed -    
Visibility 3.2 miles    
Events Rain , Thunderstorm    
Averages and records for this station are not official NWS values.
T = Trace of Precipitation, MM = Missing Value Source: Averaged Metar Reports

Daily Weather History Graph

Daily Weather History Graph

Search for Another Location

Airport:

Trip Planner

Search our weather history database for the weather conditions in past years. The results will help you decide how hot, cold, wet, or windy it might be!

Date:

Astronomy

Nov. 04, 2012 Rise Set
Actual Time 6:03 AM IST 5:41 PM IST
Civil Twilight 5:41 AM IST 6:03 PM IST
Nautical Twilight 5:16 AM IST 6:28 PM IST
Astronomical Twilight 4:51 AM IST 6:54 PM IST
Moon 10:03 PM IST (11/4) 10:16 AM IST (11/4)
Length of Visible Light 12h 21m
Length of Day
11h 37m
Waning Gibbous, 76% of the Moon is Illuminated
Nov 4
Waning Gibbous
Nov 7
Last Quarter
Nov 14
New
Nov 20
First Quarter
Nov 28
Full

Hourly Weather History & Observations

Time (IST) Temp. Heat Index Dew Point Humidity Pressure Visibility Wind Dir Wind Speed Gust Speed Precip Events Conditions
12:10 AM 77.0 °F - 71.6 °F 83% 29.80 in 2.5 mi South 3.5 mph - N/A Rain , Thunderstorm Light Thunderstorms and Rain
12:40 AM 77.0 °F - 73.4 °F 89% 29.80 in 2.5 mi Calm Calm - N/A Rain , Thunderstorm Light Thunderstorms and Rain
1:10 AM 75.2 °F - 71.6 °F 89% 29.80 in 1.1 mi SW 13.8 mph - N/A Rain , Thunderstorm Thunderstorms and Rain
2:30 AM 75 °F - 74 °F 94% 29.82 in 2 mi Calm Calm - - Rain Light Drizzle
2:40 AM 75.2 °F - 73.4 °F 94% 29.77 in 1.9 mi SSW 3.5 mph - N/A Rain Light Rain
3:10 AM 75.2 °F - 73.4 °F 94% 29.77 in 2.2 mi Calm Calm - N/A Rain Light Rain
3:40 AM 75.2 °F - 73.4 °F 94% 29.77 in 2.2 mi SSW 4.6 mph - N/A Rain Light Rain
4:10 AM 77.0 °F - 73.4 °F 89% 29.74 in 2.5 mi SSW 4.6 mph - N/A   Light Drizzle
4:40 AM 77.0 °F - 73.4 °F 89% 29.74 in 2.5 mi Variable 3.5 mph - N/A   Light Drizzle
5:10 AM 77.0 °F - 73.4 °F 89% 29.74 in 2.5 mi SW 4.6 mph - N/A   Light Drizzle
5:30 AM 75 °F - 74 °F 94% 29.78 in 2 mi Calm Calm - - Rain Light Drizzle
5:40 AM 77.0 °F - 75.2 °F 94% 29.74 in 2.5 mi Calm Calm - N/A   Haze
6:10 AM 77.0 °F - 73.4 °F 89% 29.77 in 2.5 mi WSW 4.6 mph - N/A   Haze
6:40 AM 77.0 °F - 75.2 °F 94% 29.80 in 2.5 mi Calm Calm - N/A   Haze
7:40 AM 78.8 °F - 75.2 °F 89% 29.80 in 1.9 mi SW 3.5 mph - N/A   Haze
8:10 AM 80.6 °F 86.2 °F 75.2 °F 84% 29.83 in 2.5 mi SW 6.9 mph - N/A   Haze
8:30 AM 82 °F - 78 °F 83% 29.86 in 6 mi Calm Calm - -   Partly Cloudy
8:40 AM 82.4 °F 89.5 °F 75.2 °F 79% 29.83 in 2.5 mi SW 4.6 mph - N/A   Haze
9:10 AM 82.4 °F 89.5 °F 75.2 °F 79% 29.83 in 2.5 mi SSW 5.8 mph - N/A   Haze
9:40 AM 84.2 °F 90.9 °F 73.4 °F 70% 29.83 in 2.5 mi WSW 8.1 mph - N/A   Haze
10:40 AM 86.0 °F 93.4 °F 73.4 °F 66% 29.83 in 3.7 mi WSW 4.6 mph - N/A   Scattered Clouds
11:10 AM 87.8 °F 97.6 °F 75.2 °F 66% 29.80 in 4.3 mi West 5.8 mph - N/A   Partly Cloudy
11:30 AM 89 °F - 77 °F 60% 29.83 in 6 mi SW 3.5 mph - -   Scattered Clouds
11:40 AM 87.8 °F 95.6 °F 73.4 °F 62% 29.80 in 4.3 mi NW 4.6 mph - N/A   Partly Cloudy
12:10 PM 89.6 °F 98.2 °F 73.4 °F 59% 29.77 in 4.3 mi West 6.9 mph - N/A   Partly Cloudy
12:40 PM 89.6 °F 98.2 °F 73.4 °F 59% 29.74 in 5.0 mi West 5.8 mph - N/A   Partly Cloudy
1:10 PM 89.6 °F 96.2 °F 71.6 °F 55% 29.74 in 5.0 mi WNW 3.5 mph - N/A   Partly Cloudy
1:40 PM 91.4 °F 100.1 °F 73.4 °F 55% 29.71 in 5.0 mi NE 4.6 mph - N/A   Partly Cloudy
2:10 PM 91.4 °F 100.1 °F 73.4 °F 55% 29.71 in 5.0 mi NE 4.6 mph - N/A   Scattered Clouds
2:30 PM 92 °F - 74 °F 46% 29.73 in 6 mi SSW 2.3 mph - -   Partly Cloudy
2:40 PM 91.4 °F 102.5 °F 75.2 °F 59% 29.68 in 5.0 mi Calm Calm - N/A   Scattered Clouds
3:10 PM 89.6 °F 99.8 °F 75.2 °F 62% 29.68 in 4.3 mi ESE 9.2 mph - N/A   Scattered Clouds
3:40 PM 89.6 °F 102.2 °F 77.0 °F 66% 29.68 in 3.7 mi ESE 9.2 mph - N/A   Scattered Clouds
4:10 PM 87.8 °F 99.7 °F 77.0 °F 70% 29.68 in 3.7 mi SSE 9.2 mph - N/A   Partly Cloudy
4:40 PM 87.8 °F 99.7 °F 77.0 °F 70% 29.68 in 3.7 mi ESE 9.2 mph - N/A   Partly Cloudy
5:10 PM 86.0 °F 96.9 °F 77.0 °F 74% 29.71 in 3.7 mi ESE 6.9 mph - N/A   Partly Cloudy
5:30 PM 86 °F - 77 °F 69% 29.75 in 6 mi SSE 2.3 mph - -   Scattered Clouds
5:40 PM 84.2 °F 94.1 °F 77.0 °F 79% 29.71 in 3.7 mi East 6.9 mph - N/A   Partly Cloudy
6:40 PM 84.2 °F 92.3 °F 75.2 °F 74% 29.74 in 2.8 mi ESE 5.8 mph - N/A   Haze
7:10 PM 84.2 °F 94.1 °F 77.0 °F 79% 29.74 in 2.8 mi ESE 6.9 mph - N/A   Haze
7:40 PM 84.2 °F 94.1 °F 77.0 °F 79% 29.77 in 2.8 mi SE 9.2 mph - N/A   Haze
8:10 PM 84.2 °F 94.1 °F 77.0 °F 79% 29.77 in 2.8 mi SE 6.9 mph - N/A   Haze
8:30 PM 82 °F - 77 °F 82% 29.81 in 2 mi SE 2.3 mph - -   Scattered Clouds
8:40 PM 84.2 °F 94.1 °F 77.0 °F 79% 29.77 in 2.8 mi SE 8.1 mph - N/A   Haze
9:10 PM 82.4 °F 90.9 °F 77.0 °F 84% 29.80 in 2.8 mi SE 6.9 mph - N/A   Haze
9:40 PM 82.4 °F 90.9 °F 77.0 °F 84% 29.80 in 2.5 mi SSE 6.9 mph - N/A   Haze
10:10 PM 82.4 °F 90.9 °F 77.0 °F 84% 29.80 in 2.5 mi South 6.9 mph - N/A   Haze
10:40 PM 82.4 °F 90.9 °F 77.0 °F 84% 29.80 in 2.5 mi South 5.8 mph - N/A   Haze
11:10 PM 82.4 °F 90.9 °F 77.0 °F 84% 29.80 in 2.5 mi South 4.6 mph - N/A   Haze
11:30 PM 81 °F - 78 °F 88% 29.81 in 2 mi SE 2.3 mph - -   Scattered Clouds
11:40 PM 82.4 °F 90.9 °F 77.0 °F 84% 29.77 in 2.5 mi Calm Calm - N/A   Haze